User: anonymous   Login
Location: Unspecified
(0.0000°N, 0.0000°E)
Time: 03:35:04
(UTC+00:00)
Language:

ZHUHAI-1 OVS-02 - Orbit

View from above orbital plane
View from above orbital plane
View from above satellite
View from above satellite

Ground track
Ground track

The orbit data is extracted from the following two-line orbital elements,

1 43440U 18040B   19168.87817635  .00000806  00000-0  42431-4 0  9990
2 43440  97.3664 246.8051 0009498 294.7620 168.6035 15.18383532 63375
Epoch (UTC): 17 June 2019 21:04:34
Eccentricity: 0.0009498
inclination: 97.3664°
perigee height: 504 km
apogee height: 517 km
right ascension of ascending node: 246.8051°
argument of perigee: 294.7620°
revolutions per day: 15.18383532
mean anomaly at epoch: 168.6035°
orbit number at epoch: 6337

The dashed part of the orbit path shows where the satellite is in the earth's shadow,  

DLR